Location: G�migny
(47.9646°N, 1.6950°E)
Time: 21:45:00
(UTC+00:00)

STARLINK-74 - Pass Details

Date: 23 October 2019
Orbit: 548 x 551 km, 53.0° (Epoch: 15 November)

Event Time Altitude Azimuth Distance (km) Brightness Sun altitude
Rises 17:45:40 0° 284° (WNW) 2,718 8.7 -9.9°
Reaches altitude 10° 17:48:01 10° 292° (WNW) 1,824 7.3 -10.2°
Maximum altitude 17:51:56 41° 3° (N) 812 4.4 -10.9°
Enters shadow 17:54:57 16° 69° (ENE) 1,489 5.2 -11.4°
